Wind_Speed
9 9 9 9 10 11 11 12 14 16 16 16 16 16 16 15 16 19 19 22 26 27 25 26 27 26 25 25 25 25 23 22 20 24 23 21 19 21 23 22 21 21 21
9 13 13 13 14 14 15 17 18 20 20 20 20 20 19 17 16 16 19 24 26 26 28 29 30 28 28 27 26 26 25 23 23 20 24 24 24 21 21 23 23 22 22
14 15 14 14 16 17 19 20 21 23 24 24 24 24 23 21 20 19 19 21 24 26 29 29 30 31 31 30 27 26 25 25 25 26 26 26 25 23 21 20 22 22 22
12 13 16 16 18 20 22 23 24 24 26 27 27 28 27 26 25 24 23 23 23 26 27 30 32 33 32 31 31 30 29 27 26 26 29 29 28 24 23 21 21 20 22
17 17 18 20 20 20 21 23 24 25 27 28 29 30 30 30 30 28 26 23 24 25 28 30 31 33 34 33 31 32 29 25 28 29 30 29 28 25 23 22 21 20 20
15 16 18 21 23 24 25 26 27 28 28 29 31 32 33 33 33 33 28 30 29 28 29 31 33 34 35 38 39 40 36 32 35 31 30 28 25 23 23 25 24 21 14
18 22 25 27 29 30 30 31 31 32 33 34 34 35 37 38 38 37 35 32 32 33 32 32 33 34 34 34 35 41 45 48 45 33 30 30 25 22 23 22 22 22 21
20 22 25 29 32 33 37 37 38 38 37 36 37 37 38 40 39 40 38 37 37 36 35 35 35 35 35 35 34 35 38 38 41 36 34 34 30 26 24 23 23 22 22
17 18 20 24 25 30 32 34 37 39 41 41 40 39 39 40 38 38 37 38 39 39 37 36 35 37 39 41 40 37 36 36 36 36 30 32 29 29 30 28 26 21 21
16 17 19 20 23 28 34 35 38 40 42 42 43 41 41 44 40 40 37 38 40 40 38 38 39 42 43 39 39 41 36 36 29 30 26 28 32 30 29 32 30 25 24
18 21 23 25 27 29 36 36 40 40 41 41 42 44 44 44 43 42 42 40 41 39 37 36 36 38 40 40 43 41 37 37 30 28 26 26 26 26 26 22 25 27 23
21 24 26 26 27 30 33 39 39 39 39 39 38 40 40 41 42 42 42 45 47 41 38 36 35 34 34 35 36 42 49 42 30 25 25 22 20 20 23 25 23 24 26
23 24 26 24 27 27 30 38 38 36 35 34 33 34 35 34 35 36 39 45 48 46 45 41 39 36 35 28 35 37 38 41 28 23 23 24 21 20 21 19 20 23 27
23 23 25 26 30 24 25 31 36 36 35 35 33 32 32 31 30 30 31 32 33 40 43 42 40 36 35 34 31 35 38 27 22 24 21 21 16 19 24 23 21 20 19
21 21 25 25 27 26 25 31 34 35 42 41 32 29 29 26 29 31 30 28 22 20 17 25 23 26 28 27 28 26 29 25 23 22 20 19 17 15 16 15 15 14 15
19 19 23 25 25 23 23 31 40 39 46 46 43 42 39 32 39 40 38 37 35 38 29 20 18 19 20 22 22 20 20 25 24 21 18 16 15 13 10 9 9 10 8
18 22 24 24 22 23 19 26 28 38 41 48 50 48 48 45 32 34 42 46 43 39 26 23 19 22 18 19 20 19 18 18 20 16 11 7 7 5 3 3 1 2 4
19 23 21 21 21 20 17 19 23 28 23 36 49 49 50 46 39 16 15 22 26 25 27 26 23 22 18 20 20 20 20 17 15 15 13 10 8 8 9 9 10 11 11
19 20 19 21 20 20 17 17 19 22 24 22 31 50 55 47 43 43 22 6 14 14 14 13 15 15 21 20 25 24 23 19 17 15 14 12 13 13 11 11 12 13 16
17 19 18 19 19 20 18 19 20 22 21 22 24 30 46 50 44 41 41 32 29 26 18 18 18 24 17 27 25 24 24 20 16 14 13 10 8 7 10 13 12 10 10
20 20 20 19 16 17 18 16 17 21 21 20 19 24 26 39 45 36 40 39 40 34 30 30 31 31 29 27 28 27 21 12 17 16 9 5 8 5 6 9 12 13 12
21 20 21 21 19 16 17 19 14 15 14 18 18 14 14 20 26 33 37 36 37 41 35 31 32 37 33 30 24 24 22 22 14 16 12 10 7 5 9 9 12 13 17
22 19 17 19 20 19 21 19 18 21 17 16 10 14 11 10 10 13 17 22 22 27 31 35 32 28 27 27 26 23 22 21 21 17 10 9 6 3 2 3 2 3 4
23 18 18 18 17 18 18 20 20 18 17 18 17 16 13 11 12 9 7 8 12 15 16 20 22 21 23 25 27 29 26 21 17 17 14 11 10 8 6 5 6 7 7
24 19 19 18 17 16 17 16 17 17 17 16 15 14 15 15 12 11 9 8 8 9 12 13 14 17 19 21 22 23 21 20 18 16 12 12 11 10 9 8 8 3 2
20 20 18 17 14 14 14 14 13 13 14 13 13 13 12 13 13 12 10 10 8 8 8 10 11 11 12 16 18 18 20 21 19 15 11 9 8 8 8 6 7 6 5
Wind_Direction
30 357 355 339 333 323 314 306 303 303 305 304 305 304 303 301 292 278 270 271 272 267 258 258 255 249 252 254 252 255 258 262 269 273 276 281 278 275 276 277 278 279 279
7 350 346 330 323 314 305 300 299 297 295 293 292 291 292 292 290 285 281 275 270 270 266 262 259 254 247 248 252 255 257 261 263 267 268 272 268 266 267 268 274 272 277
3 342 328 325 315 310 306 303 300 297 294 290 286 285 284 281 283 281 279 277 274 271 269 266 262 260 256 251 248 247 238 243 248 253 265 267 269 271 270 265 264 270 273
350 341 339 325 317 314 307 301 297 293 291 289 285 281 278 277 275 275 276 274 274 273 272 269 263 259 254 253 248 245 247 251 255 258 264 267 266 265 264 266 267 269 270
348 342 334 329 325 316 308 304 299 295 289 286 283 278 276 274 271 272 273 269 275 276 274 271 267 262 258 253 249 248 245 238 242 246 251 254 255 257 254 258 261 268 275
345 338 332 329 327 323 318 313 308 301 296 290 284 279 276 272 269 271 275 269 274 274 273 272 271 268 263 255 251 247 242 233 234 238 243 247 254 255 257 261 263 269 277
353 347 342 337 332 327 322 317 311 306 301 295 290 285 278 274 271 271 268 268 269 272 271 269 268 265 263 256 252 247 247 246 242 244 249 255 260 262 271 275 263 267 269
353 348 345 338 331 330 325 317 312 308 301 295 289 285 281 277 274 272 272 267 268 267 265 265 263 263 261 258 250 247 245 245 247 248 253 262 261 260 261 264 262 268 267
344 341 339 341 330 319 315 312 310 305 300 296 291 287 281 277 275 274 270 267 264 263 262 259 257 259 258 256 249 245 245 246 249 260 258 256 257 263 257 252 253 251 254
328 320 319 324 323 320 313 304 298 294 288 287 286 282 279 276 272 271 268 264 264 261 262 261 257 253 254 254 250 242 245 245 246 254 258 259 258 260 257 249 246 246 250
307 308 306 305 308 309 317 311 307 296 289 282 278 275 272 271 271 267 262 259 255 258 256 258 257 256 255 252 249 246 239 247 250 251 255 260 259 258 250 245 235 240 241
301 303 309 308 311 318 319 321 311 304 293 288 280 275 271 267 265 264 262 257 253 255 255 255 258 262 263 258 249 254 246 243 247 245 250 247 249 248 245 242 239 240 244
301 303 306 308 305 306 314 324 322 316 314 293 281 277 273 268 263 260 262 263 256 248 251 253 252 256 262 263 255 253 254 251 243 235 238 242 246 251 265 265 256 258 248
310 309 312 313 310 310 322 325 328 325 324 318 300 282 276 269 263 259 262 263 252 245 249 251 251 249 245 248 252 251 245 236 226 226 226 236 241 252 259 257 256 255 253
314 313 311 316 319 313 309 323 330 329 333 329 329 316 289 269 259 255 253 255 253 261 283 311 254 234 235 238 237 227 228 226 223 219 211 229 238 234 240 249 252 254 251
309 304 308 314 322 324 317 316 336 333 344 346 346 344 337 311 277 262 255 252 254 267 280 278 276 248 231 219 204 198 209 211 214 209 202 207 213 225 234 245 263 261 282
298 300 311 318 320 315 317 329 333 339 348 0 356 352 351 345 323 276 263 252 249 258 265 267 256 254 223 207 196 191 188 180 176 173 165 167 195 200 209 224 279 328 21
300 301 304 318 312 309 310 321 332 345 336 357 360 357 355 355 4 345 269 254 253 250 248 249 246 220 197 183 165 152 148 150 154 153 148 153 145 133 115 106 105 108 96
304 312 321 317 310 303 298 292 318 327 339 335 354 3 0 358 20 30 31 226 243 237 216 183 167 159 146 136 135 129 126 123 125 124 122 126 129 126 115 113 106 106 108
313 311 312 306 312 314 308 298 301 316 328 332 341 358 5 6 17 23 27 28 39 37 48 74 75 99 102 110 107 119 120 118 124 118 122 123 119 116 125 129 129 128 114
313 319 319 314 334 328 325 320 311 301 322 317 333 2 15 22 18 16 26 31 33 31 32 47 58 46 59 72 83 82 81 87 87 90 83 111 122 130 143 155 155 150 129
308 315 319 326 335 333 324 327 321 321 323 317 318 340 14 42 37 26 25 26 33 38 39 46 56 72 67 66 75 88 75 65 75 104 107 88 77 186 193 173 175 181 172
301 306 314 316 325 330 329 336 336 342 347 332 344 5 18 34 39 34 37 46 44 45 43 46 50 54 58 62 66 63 59 57 52 60 72 104 95 114 103 92 103 152 158
294 309 316 315 326 321 336 330 332 340 343 351 359 8 20 34 44 51 46 34 40 38 35 48 57 58 53 54 57 59 60 55 53 53 55 49 45 28 55 94 82 54 48
301 302 306 313 323 328 333 334 332 337 343 350 356 4 4 11 34 49 59 66 69 67 68 68 68 66 67 59 55 56 54 51 54 56 49 46 42 38 31 43 1 35 36
307 310 315 310 321 330 332 334 337 339 341 351 356 360 5 9 12 14 25 30 47 66 70 73 75 75 75 74 72 64 57 50 44 52 36 30 27 29 5 352 0 333 347
Height
856 859 857 854 851 850 848 847 846 844 841 839 837 835 832 830 828 826 824 823 821 819 818 817 817 816 815 813 812 811 811 811 808 807 806 805 805 805 805 805 803 801 797
857 857 854 853 851 849 848 846 844 841 838 836 833 831 828 825 823 821 819 816 814 812 811 811 809 809 807 807 806 804 802 802 802 799 799 798 797 795 795 796 797 794 792
847 853 854 851 851 847 846 843 839 836 833 831 828 825 822 819 818 815 813 810 807 805 804 802 801 801 800 798 797 796 795 795 795 794 791 790 788 788 787 787 787 788 786
854 851 849 850 849 844 842 840 836 833 829 826 822 818 815 812 811 809 806 803 800 798 795 793 792 792 791 791 790 788 788 787 786 787 784 782 781 780 780 779 778 778 777
850 849 848 846 843 841 839 835 831 827 824 820 815 811 808 804 802 800 797 796 793 790 788 785 783 781 781 781 780 779 779 777 775 774 771 769 767 768 770 769 768 769 770
849 848 846 843 839 836 833 829 825 821 816 812 808 803 798 794 791 791 790 790 786 783 780 777 775 772 770 770 769 769 768 766 761 758 758 758 759 760 763 765 763 762 761
845 843 840 837 833 830 827 823 818 813 808 803 798 794 788 784 783 782 782 781 778 774 770 768 765 763 761 759 758 757 758 757 756 756 754 755 757 759 761 760 760 760 759
843 840 837 833 829 824 819 813 809 804 799 793 788 784 779 773 773 772 773 771 767 762 758 757 755 752 751 749 749 748 746 746 747 749 751 752 754 754 754 756 756 755 755
839 837 834 832 829 825 819 812 804 796 789 782 777 772 767 761 762 761 763 760 754 747 745 742 742 739 738 738 740 739 737 736 741 743 745 745 744 745 745 748 749 747 745
838 836 832 827 823 819 813 806 798 790 780 773 764 760 754 747 747 747 749 747 740 734 730 727 726 725 724 726 728 727 727 726 732 735 735 735 734 733 733 735 736 735 734
835 831 827 824 817 811 804 797 788 778 769 761 752 744 739 735 731 731 733 733 726 720 715 713 711 711 710 712 716 716 714 719 721 723 724 724 724 724 725 725 725 727 726
828 824 820 815 810 804 797 788 778 767 756 746 738 729 723 719 716 714 715 715 713 711 704 701 700 700 701 701 702 702 706 708 710 712 712 712 714 714 715 716 716 718 718
821 818 813 807 802 796 791 781 770 759 748 735 726 716 709 706 702 700 700 698 696 698 696 691 691 691 693 692 692 693 696 698 699 701 704 703 706 707 709 709 710 710 710
814 809 803 798 794 790 786 777 768 754 742 729 715 703 696 693 691 690 689 683 681 681 681 682 679 680 682 682 684 683 685 688 690 693 695 698 699 700 702 703 702 702 704
809 803 797 792 787 784 779 771 761 753 742 725 711 699 688 682 679 678 677 674 671 672 671 670 667 667 668 669 672 675 675 679 684 685 688 690 692 694 696 697 697 697 697
804 797 791 787 780 778 774 765 754 746 735 721 707 696 684 676 670 665 664 664 666 666 666 666 660 657 657 658 660 664 670 673 676 678 681 684 687 690 691 692 692 692 693
799 793 787 782 777 773 768 763 753 739 730 716 703 693 681 668 653 645 645 649 655 659 659 656 654 652 649 653 655 658 663 667 669 674 677 681 684 686 688 690 690 691 692
793 788 783 777 772 768 763 759 750 740 729 721 706 697 682 666 647 631 634 642 646 648 648 647 644 642 642 646 650 654 658 664 669 673 677 681 682 685 689 691 691 691 693
789 782 779 774 769 763 760 754 747 740 731 724 712 698 683 670 652 639 634 636 638 637 636 635 636 637 637 642 643 651 658 664 668 673 677 682 685 688 691 692 693 695 694
784 778 775 770 764 759 755 751 746 738 730 725 718 711 697 675 660 655 649 647 642 640 641 639 638 641 642 637 650 658 663 667 672 675 680 683 687 689 691 691 693 696 697
778 773 769 761 756 755 752 747 744 738 732 726 723 717 709 698 683 678 667 661 648 658 654 649 650 642 647 655 659 660 668 676 670 672 681 686 686 690 693 693 695 695 696
775 769 764 758 753 749 747 741 736 732 730 726 721 719 716 711 704 695 686 682 678 673 666 663 663 661 664 668 676 681 679 676 677 677 684 685 686 693 695 692 691 690 693
770 764 760 757 753 747 741 737 734 729 725 722 719 716 714 715 712 711 705 698 697 691 684 682 680 684 684 683 683 684 683 682 683 685 686 687 690 690 688 687 685 685 686
765 760 755 752 748 747 740 737 732 728 726 722 719 717 713 712 713 713 711 709 706 702 700 696 695 695 695 692 689 688 689 691 692 692 692 693 694 692 691 691 693 694 694
758 754 750 747 745 743 740 737 733 730 726 723 720 719 716 713 711 710 710 711 711 710 708 706 705 704 702 700 699 698 699 700 700 700 700 700 700 698 698 696 697 695 697
753 749 746 744 742 741 740 738 735 732 729 726 724 721 719 716 714 712 711 711 710 710 710 709 708 709 709 707 707 707 706 706 705 704 704 704 703 703 704 702 702 700 699